Location: ActonStarParty
(42.4766°N, 71.4538°W)
Time: 00:55:46
(UTC-04:00)

Genesis I - Pass Details

Date: 19 April 2018
Orbit: 482 x 546 km, 64.5° (Epoch: 20 May)

Event Time Altitude Azimuth Distance (km) Brightness Sun altitude
Rises 20:53:04 0° 329° (NNW) 2,717 8.0 -14.5°
Reaches altitude 10° 20:55:20 10° 335° (NNW) 1,823 6.9 -14.8°
Maximum altitude 20:59:21 53° 53° (NE) 674 3.6 -15.4°
Enters shadow 21:01:03 30° 115° (ESE) 986 4.0 -15.7°
